IRIDIUM 131

Last updated on Fri Sep 11 2026 00:03:06 GMT+0000 (Coordinated Universal Time)

1 43079U 17083K 26253.51651799 .00000053 00000+0 11845-4 0 9993 2 43079 86.3931 286.5108 0002234 94.1164 266.0287 14.34218084456338
UTC large
Height (km)
Speed (km/s)
/
Latitude / Longitude
Inclination (degrees)
Orbital Period (minutes)
Azimuth
Elevation
Range (km)
Doppler Factor

Next 0 passes for location: London (51.5072 / 0.1276)

No passes found over London.
IRIDIUM 131